Regional Weather Roundup
Issued by NWS Midland/Odessa, TX

Skip options and go directly to product.
Home | Oldest Version | Previous Version | Current Version | All | Text Only | Save Text | Print | Product List | Glossary On

Skip product version selection by date and time.   
164
ASUS44 KMAF 202210
RWRMAF
MIDLAND AREA WEATHER ROUNDUP
NATIONAL WEATHER SERVICE MIDLAND TX
400 PM CST SAT DEC 20 2014

...IN SOUTHWEST TEXAS AND SOUTHEAST NEW MEXICO...

CITY           SKY/WX    TMP DP  RH WIND       PRES   REMARKS
ALPINE         SUNNY     61  29  29 SW15G21   30.09F
ANDREWS        FAIR      57  28  33 SW7       30.03S
ARTESIA        MOSUNNY   55  30  38 SE9       30.01S
BIG SPRING     CLOUDY    54  44  69 SE10      30.07F
CARLSBAD       SUNNY     58  29  33 SE7       29.99F
DRYDEN           N/A     55  46  71 SE12      30.05F
FORT STOCKTON  SUNNY     61  32  33 VRB6      30.02F
GUAD PASS      NOT AVBL
HOBBS          SUNNY     54  28  37 S12       30.02F
MARFA          SUNNY     59  27  29 W14       30.07S
MIDLAND AIRPK  SUNNY     59  40  50 S8        30.03F
MIDLAND INTL   SUNNY     60  30  32 SW14      30.02F
ODESSA         SUNNY     59  25  27 SW15      30.03F
PECOS          SUNNY     62  30  30 CALM      30.02S
PRESIDIO       FAIR      64  32  30 CALM      30.02F
SEMINOLE       SUNNY     55  28  34 SW7       30.03F
SNYDER         CLOUDY    49  42  75 S8        30.08F
WINK           SUNNY     60  26  27 SW10      30.01F
$$
...OTHER STATIONS IN TEXAS...

CITY           SKY/WX    TMP DP  RH WIND       PRES   REMARKS
ABILENE        PTSUNNY   52  40  63 SE8       30.11F
AMARILLO       SUNNY     51  30  44 S16       30.00F
AUSTIN         CLOUDY    54  46  74 NE9       30.14F
BROWNSVILLE    CLOUDY    58  53  84 N10       30.10F
CORPUS CHRISTI CLOUDY    57  50  77 NE8       30.13F
DALLAS FTW     CLOUDY    47  42  83 N5        30.18F
DEL RIO        CLOUDY    59  47  64 E10       30.08F
EL PASO        PTSUNNY   56  25  30 W10       30.06F
HOUSTON INT    CLOUDY    54  49  83 NE9       30.15S
LUBBOCK        MOSUNNY   47  37  68 S13       30.02F
SAN ANGELO     CLOUDY    54  45  71 S7        30.09F
SAN ANTONIO    PTSUNNY   58  45  62 E9        30.13S
WACO           CLOUDY    50  44  80 N6        30.17F
WICHITA FALLS  NOT AVBL
$$
...OTHER LOCATIONS IN NEW MEXICO...

CITY           SKY/WX    TMP DP  RH WIND       PRES   REMARKS
ALAMAGORDO     MOSUNNY   52  23  32 NW10      30.08F
ALBUQUERQUE    MOSUNNY   44  26  49 CALM      30.09F
CANNON AFB     MOSUNNY   53  20  28 W9        29.98F
CLOVIS         MOSUNNY   52  21  30 W13G20    29.98S
HOLLOMAN AFB   MOSUNNY   52  23  32 N5        30.07F
ROSWELL        MOSUNNY   55  25  31 S7        30.00F
RUIDOSO        MOSUNNY   45  18  33 NW13G18   30.07R WCI  38
SANTA FE       SUNNY     39  21  48 W10       30.05S WCI  32
TRUTH OR CONSE SUNNY     51  18  27 VRB5      30.07F
TUCUMCARI      PTSUNNY   51  23  33 NW3       29.96F
$$

USA.gov is the U.S. government's official web portal to all federal, state and local government web resources and services.